TimeEST,TemperatureF,Dew PointF,Humidity,Sea Level PressureIn,VisibilityMPH,Wind Direction,Wind SpeedMPH,Gust SpeedMPH,PrecipitationIn,Events,Conditions,WindDirDegrees,DateUTC
12:53 AM,52.0,41.0,66,30.14,10.0,NNW,6.9,-,N/A,,Clear,340,2013-03-07 05:53:00
1:53 AM,52.0,41.0,66,30.14,10.0,North,6.9,-,N/A,,Clear,360,2013-03-07 06:53:00
2:53 AM,51.1,36.0,56,30.13,10.0,North,10.4,-,N/A,,Clear,10,2013-03-07 07:53:00
3:53 AM,48.9,33.1,54,30.13,10.0,NNE,11.5,-,N/A,,Clear,20,2013-03-07 08:53:00
4:53 AM,48.0,33.1,56,30.14,10.0,NNE,12.7,-,N/A,,Clear,20,2013-03-07 09:53:00
5:53 AM,46.9,33.1,59,30.16,10.0,North,11.5,-,N/A,,Clear,10,2013-03-07 10:53:00
6:53 AM,46.0,32.0,58,30.18,10.0,NNE,9.2,-,N/A,,Clear,20,2013-03-07 11:53:00
7:53 AM,48.9,32.0,52,30.20,10.0,NNE,11.5,19.6,N/A,,Clear,30,2013-03-07 12:53:00
8:53 AM,51.1,30.9,46,30.22,10.0,NNE,16.1,-,N/A,,Clear,30,2013-03-07 13:53:00
9:53 AM,54.0,30.9,41,30.23,10.0,ENE,10.4,-,N/A,,Clear,60,2013-03-07 14:53:00
10:53 AM,57.0,30.9,37,30.23,10.0,North,4.6,-,N/A,,Clear,360,2013-03-07 15:53:00
11:53 AM,60.1,32.0,35,30.23,10.0,North,8.1,-,N/A,,Clear,10,2013-03-07 16:53:00
12:53 PM,63.0,32.0,31,30.20,10.0,Calm,Calm,-,N/A,,Clear,0,2013-03-07 17:53:00
1:53 PM,66.9,34.0,30,30.18,10.0,NNW,8.1,-,N/A,,Clear,330,2013-03-07 18:53:00
2:53 PM,68.0,33.1,27,30.16,10.0,NNE,8.1,-,N/A,,Clear,30,2013-03-07 19:53:00
3:53 PM,66.9,37.9,34,30.15,10.0,NW,9.2,-,N/A,,Clear,310,2013-03-07 20:53:00
4:53 PM,64.0,39.9,41,30.16,10.0,NW,12.7,-,N/A,,Clear,310,2013-03-07 21:53:00
5:53 PM,60.1,43.0,53,30.17,10.0,NW,10.4,-,N/A,,Clear,310,2013-03-07 22:53:00
6:53 PM,57.0,44.1,62,30.18,10.0,NW,9.2,-,N/A,,Clear,310,2013-03-07 23:53:00
7:53 PM,57.0,46.0,67,30.19,10.0,WNW,6.9,-,N/A,,Clear,290,2013-03-08 00:53:00
8:53 PM,55.9,46.0,69,30.21,10.0,NW,8.1,-,N/A,,Clear,320,2013-03-08 01:53:00
9:53 PM,54.0,45.0,72,30.22,10.0,NNW,6.9,-,N/A,,Clear,330,2013-03-08 02:53:00
10:53 PM,53.1,45.0,74,30.21,10.0,North,8.1,-,N/A,,Clear,350,2013-03-08 03:53:00
11:53 PM,52.0,43.0,71,30.21,10.0,North,8.1,-,N/A,,Clear,360,2013-03-08 04:53:00